timestamp,wind_dir_avg,wind_spd_avg,wind_spd_max_dir,wind_spd_gust,battery_voltage,lat,long
2021-06-14 00:04:01+00:00,250.0,4.65,245.0,5.25,13.21,47.59359,-54.27349
2021-06-14 00:14:01+00:00,239.0,5.57,240.0,5.88,12.65,47.59359,-54.27349
2021-06-14 00:24:01+00:00,242.0,6.33,243.0,7.48,12.65,47.59359,-54.27349
2021-06-14 00:34:01+00:00,250.0,7.22,251.0,7.95,12.65,47.59359,-54.27349
2021-06-14 00:44:01+00:00,258.0,7.62,260.0,8.73,12.65,47.59359,-54.27349
2021-06-14 00:54:01+00:00,261.0,6.23,264.0,6.81,12.65,47.59359,-54.27349
2021-06-14 01:04:01+00:00,260.0,5.77,262.0,6.12,12.65,47.59359,-54.27349
2021-06-14 01:14:01+00:00,249.0,7.08,253.0,8.06,12.65,47.59359,-54.27349
2021-06-14 01:24:01+00:00,246.0,6.4,247.0,7.07,12.65,47.59359,-54.27349
2021-06-14 01:34:01+00:00,254.0,7.86,253.0,8.75,12.65,47.59359,-54.27349
2021-06-14 01:44:01+00:00,246.0,7.8,245.0,8.36,12.65,47.59359,-54.27349
2021-06-14 01:54:01+00:00,248.0,7.64,252.0,8.49,12.65,47.59359,-54.27349
2021-06-14 02:04:01+00:00,269.0,5.97,268.0,6.67,12.65,47.59359,-54.27349
2021-06-14 02:14:00+00:00,289.0,6.79,286.0,7.86,12.57,47.59359,-54.27349
2021-06-14 02:24:00+00:00,275.0,6.06,272.0,6.84,12.57,47.59359,-54.27349
2021-06-14 02:34:00+00:00,271.0,5.7,267.0,6.39,12.57,47.59359,-54.27349
2021-06-14 02:44:00+00:00,257.0,5.95,258.0,6.66,12.57,47.59359,-54.27349
2021-06-14 02:54:00+00:00,258.0,6.08,253.0,6.76,12.57,47.59359,-54.27349
2021-06-14 03:04:00+00:00,250.0,6.01,253.0,6.56,12.57,47.59359,-54.27349
2021-06-14 03:14:01+00:00,247.0,6.29,246.0,7.11,12.57,47.59359,-54.27349
2021-06-14 03:24:01+00:00,256.0,6.42,254.0,7.15,12.57,47.59359,-54.27349
2021-06-14 03:34:01+00:00,251.0,6.42,254.0,6.88,12.57,47.59359,-54.27349
2021-06-14 03:44:01+00:00,255.0,6.57,259.0,8.48,12.57,47.59359,-54.27349
2021-06-14 03:54:01+00:00,263.0,6.1,257.0,6.96,12.57,47.59359,-54.27349
2021-06-14 04:04:01+00:00,261.0,5.86,259.0,6.73,12.57,47.59359,-54.27349
2021-06-14 04:14:00+00:00,262.0,5.66,262.0,6.18,12.49,47.59359,-54.27349
2021-06-14 04:24:00+00:00,261.0,5.87,256.0,6.43,12.49,47.59359,-54.27349
2021-06-14 04:34:00+00:00,260.0,5.67,262.0,6.51,12.49,47.59359,-54.27349
2021-06-14 04:44:00+00:00,265.0,5.5,266.0,5.86,12.49,47.59359,-54.27349
2021-06-14 04:54:00+00:00,269.0,5.14,266.0,5.69,12.49,47.59359,-54.27349
2021-06-14 05:04:00+00:00,268.0,5.48,270.0,6.23,12.49,47.59359,-54.27349
2021-06-14 05:14:00+00:00,260.0,5.87,256.0,6.37,12.49,47.59359,-54.27349
2021-06-14 05:24:00+00:00,261.0,4.87,260.0,5.83,12.49,47.59359,-54.27349
2021-06-14 05:34:00+00:00,262.0,4.97,260.0,5.29,12.49,47.59359,-54.27349
2021-06-14 05:44:00+00:00,273.0,5.65,274.0,6.38,12.49,47.59359,-54.27349
2021-06-14 05:54:00+00:00,273.0,4.9,277.0,5.71,12.49,47.59359,-54.27349
2021-06-14 06:04:00+00:00,291.0,5.82,297.0,7.22,12.49,47.59359,-54.27349
2021-06-14 06:14:01+00:00,297.0,7.23,298.0,8.93,12.49,47.59359,-54.27349
2021-06-14 06:24:01+00:00,297.0,7.16,294.0,8.3,12.49,47.59359,-54.27349
2021-06-14 06:34:01+00:00,301.0,7.78,300.0,9.18,12.49,47.59359,-54.27349
2021-06-14 06:44:01+00:00,312.0,8.19,308.0,9.24,12.49,47.59359,-54.27349
2021-06-14 06:54:01+00:00,312.0,7.86,305.0,9.43,12.49,47.59359,-54.27349
2021-06-14 07:04:01+00:00,305.0,7.72,306.0,9.11,12.49,47.59359,-54.27349
2021-06-14 07:14:01+00:00,307.0,7.18,308.0,7.69,12.41,47.59359,-54.27349
2021-06-14 07:24:01+00:00,308.0,7.02,306.0,7.83,12.41,47.59359,-54.27349
2021-06-14 07:34:01+00:00,309.0,7.67,307.0,8.35,12.41,47.59359,-54.27349
2021-06-14 07:44:01+00:00,304.0,6.98,307.0,7.61,12.41,47.59359,-54.27349
2021-06-14 07:54:01+00:00,304.0,7.9,307.0,9.04,12.41,47.59359,-54.27349
2021-06-14 08:04:01+00:00,310.0,7.22,306.0,7.99,12.41,47.59359,-54.27349
2021-06-14 08:14:00+00:00,311.0,6.02,307.0,6.47,12.49,47.59359,-54.27349
2021-06-14 08:24:00+00:00,318.0,6.22,321.0,7.73,12.49,47.59359,-54.27349
2021-06-14 08:34:00+00:00,319.0,7.11,330.0,8.22,12.49,47.59359,-54.27349
2021-06-14 08:44:00+00:00,318.0,6.29,320.0,6.92,12.49,47.59359,-54.27349
2021-06-14 08:54:00+00:00,316.0,6.55,317.0,7.96,12.49,47.59359,-54.27349
2021-06-14 09:04:00+00:00,314.0,5.81,311.0,6.93,12.49,47.59359,-54.27349
2021-06-14 09:14:01+00:00,317.0,5.61,313.0,6.53,13.05,47.59359,-54.27349
2021-06-14 09:24:01+00:00,322.0,5.17,322.0,5.6,13.05,47.59359,-54.27349
2021-06-14 09:34:01+00:00,325.0,5.21,326.0,5.68,13.05,47.59359,-54.27349
2021-06-14 09:44:01+00:00,327.0,4.86,327.0,5.49,13.05,47.59359,-54.27349
2021-06-14 09:54:01+00:00,328.0,4.38,327.0,4.95,13.05,47.59359,-54.27349
2021-06-14 10:04:01+00:00,328.0,4.95,331.0,5.44,13.05,47.59359,-54.27349
2021-06-14 10:14:01+00:00,350.0,3.88,353.0,4.58,13.53,47.59359,-54.27349
2021-06-14 10:24:01+00:00,69.0,3.34,71.0,3.69,13.53,47.59359,-54.27349
2021-06-14 10:34:01+00:00,53.0,1.81,54.0,2.13,13.53,47.59359,-54.27349
2021-06-14 10:44:01+00:00,25.0,2.39,39.0,4.08,13.53,47.59359,-54.27349
2021-06-14 10:54:01+00:00,10.0,3.4,16.0,3.83,13.53,47.59359,-54.27349
2021-06-14 11:04:01+00:00,358.0,3.45,3.0,3.97,13.53,47.59359,-54.27349
2021-06-14 11:14:01+00:00,28.0,2.19,35.0,2.64,13.76,47.59359,-54.27349
2021-06-14 11:24:01+00:00,68.0,1.4,58.0,1.8,13.76,47.59359,-54.27349
2021-06-14 11:34:01+00:00,73.0,2.17,60.0,3.05,13.76,47.59359,-54.27349
2021-06-14 11:44:01+00:00,129.0,1.74,127.0,1.96,13.76,47.59359,-54.27349
2021-06-14 11:54:01+00:00,73.0,0.68,64.0,0.9,13.76,47.59359,-54.27349
2021-06-14 12:04:01+00:00,171.0,1.39,183.0,1.56,13.76,47.59359,-54.27349
2021-06-14 12:14:01+00:00,167.0,0.79,168.0,0.87,13.84,47.59359,-54.27349
2021-06-14 12:24:01+00:00,148.0,1.06,148.0,1.14,13.84,47.59359,-54.27349
2021-06-14 12:34:01+00:00,161.0,1.84,162.0,1.93,13.84,47.59359,-54.27349
2021-06-14 12:44:01+00:00,174.0,1.08,167.0,1.28,13.84,47.59359,-54.27349
2021-06-14 12:54:01+00:00,189.0,0.89,186.0,0.99,13.84,47.59359,-54.27349
2021-06-14 13:04:01+00:00,172.0,0.72,176.0,0.82,13.84,47.59359,-54.27349
2021-06-14 13:14:01+00:00,137.0,0.99,148.0,1.5,13.76,47.59359,-54.27349
2021-06-14 13:24:01+00:00,156.0,0.86,160.0,0.93,13.76,47.59359,-54.27349
2021-06-14 13:34:01+00:00,58.0,1.06,58.0,1.21,13.76,47.59359,-54.27349
2021-06-14 13:44:01+00:00,145.0,1.19,146.0,1.34,13.76,47.59359,-54.27349
2021-06-14 13:54:01+00:00,159.0,1.01,162.0,1.13,13.76,47.59359,-54.27349
2021-06-14 14:04:01+00:00,169.0,1.43,172.0,1.81,13.76,47.59359,-54.27349
2021-06-14 14:14:01+00:00,175.0,2.08,180.0,2.54,13.76,47.59359,-54.27349
2021-06-14 14:24:01+00:00,153.0,1.59,152.0,1.7,13.76,47.59359,-54.27349
2021-06-14 14:34:01+00:00,111.0,2.05,111.0,2.76,13.76,47.59359,-54.27349
2021-06-14 14:44:01+00:00,102.0,1.92,110.0,2.51,13.76,47.59359,-54.27349
2021-06-14 14:54:01+00:00,68.0,2.9,66.0,3.41,13.76,47.59359,-54.27349
2021-06-14 15:04:01+00:00,70.0,3.54,76.0,4.4,13.76,47.59359,-54.27349
2021-06-14 15:14:01+00:00,106.0,2.05,120.0,3.21,14.16,47.59359,-54.27349
2021-06-14 15:24:01+00:00,115.0,1.99,120.0,2.54,14.16,47.59359,-54.27349
2021-06-14 15:34:01+00:00,109.0,1.56,92.0,2.01,14.16,47.59359,-54.27349
2021-06-14 15:44:01+00:00,214.0,2.39,213.0,2.68,14.16,47.59359,-54.27349
2021-06-14 15:54:01+00:00,216.0,4.89,218.0,5.36,14.16,47.59359,-54.27349
2021-06-14 16:04:01+00:00,216.0,4.14,215.0,4.72,14.16,47.59359,-54.27349
2021-06-14 16:14:01+00:00,221.0,5.98,222.0,6.73,14.32,47.59359,-54.27349
2021-06-14 16:24:01+00:00,221.0,5.87,225.0,6.47,14.32,47.59359,-54.27349
2021-06-14 16:34:01+00:00,221.0,6.54,217.0,7.46,14.32,47.59359,-54.27349
2021-06-14 16:44:01+00:00,220.0,7.62,219.0,8.35,14.32,47.59359,-54.27349
2021-06-14 16:54:01+00:00,220.0,7.06,225.0,7.86,14.32,47.59359,-54.27349
2021-06-14 17:04:01+00:00,216.0,6.32,216.0,6.89,14.32,47.59359,-54.27349
2021-06-14 17:14:01+00:00,216.0,6.14,217.0,6.98,14.0,47.59359,-54.27349
2021-06-14 17:24:01+00:00,214.0,7.08,212.0,7.78,14.0,47.59359,-54.27349
2021-06-14 17:34:01+00:00,219.0,7.91,218.0,8.94,14.0,47.59359,-54.27349
2021-06-14 17:44:01+00:00,222.0,8.43,220.0,9.98,14.0,47.59359,-54.27349
2021-06-14 17:54:01+00:00,219.0,8.18,217.0,9.36,14.0,47.59359,-54.27349
2021-06-14 18:04:01+00:00,221.0,8.48,222.0,9.95,14.0,47.59359,-54.27349
2021-06-14 18:14:01+00:00,222.0,8.51,225.0,9.62,13.84,47.59359,-54.27349
2021-06-14 18:24:01+00:00,222.0,7.6,217.0,8.88,13.84,47.59359,-54.27349
2021-06-14 18:34:01+00:00,220.0,8.21,229.0,9.23,13.84,47.59359,-54.27349
2021-06-14 18:44:01+00:00,217.0,8.84,217.0,9.88,13.84,47.59359,-54.27349
2021-06-14 18:54:01+00:00,216.0,8.97,217.0,9.62,13.84,47.59359,-54.27349
2021-06-14 19:04:01+00:00,219.0,8.87,218.0,10.22,13.84,47.59359,-54.27349
2021-06-14 19:14:01+00:00,216.0,8.17,215.0,9.27,13.92,47.59359,-54.27349
2021-06-14 19:24:01+00:00,214.0,7.59,216.0,8.32,13.92,47.59359,-54.27349
2021-06-14 19:34:01+00:00,211.0,7.0,213.0,7.56,13.92,47.59359,-54.27349
2021-06-14 19:44:01+00:00,217.0,6.58,218.0,7.52,13.92,47.59359,-54.27349
2021-06-14 19:54:01+00:00,215.0,6.78,218.0,7.55,13.92,47.59359,-54.27349
2021-06-14 20:04:01+00:00,220.0,6.58,223.0,7.17,13.92,47.59359,-54.27349
2021-06-14 20:14:01+00:00,223.0,6.92,223.0,8.18,13.84,47.59359,-54.27349
2021-06-14 20:24:01+00:00,217.0,6.41,220.0,7.04,13.84,47.59359,-54.27349
2021-06-14 20:34:01+00:00,218.0,6.83,216.0,8.0,13.84,47.59359,-54.27349
2021-06-14 20:44:01+00:00,229.0,5.96,223.0,6.66,13.84,47.59359,-54.27349
2021-06-14 20:54:01+00:00,219.0,6.06,216.0,6.58,13.84,47.59359,-54.27349
2021-06-14 21:04:01+00:00,216.0,6.4,216.0,6.96,13.84,47.59359,-54.27349
2021-06-14 21:14:01+00:00,204.0,5.88,204.0,6.2,13.76,47.59359,-54.27349
2021-06-14 21:24:01+00:00,217.0,6.71,210.0,8.38,13.76,47.59359,-54.27349
2021-06-14 21:34:01+00:00,220.0,6.81,222.0,7.71,13.76,47.59359,-54.27349
2021-06-14 21:44:01+00:00,218.0,6.72,221.0,7.53,13.76,47.59359,-54.27349
2021-06-14 21:54:01+00:00,214.0,6.56,209.0,7.34,13.76,47.59359,-54.27349
2021-06-14 22:04:01+00:00,219.0,7.58,219.0,8.19,13.76,47.59359,-54.27349
2021-06-14 22:14:01+00:00,222.0,6.75,220.0,7.69,13.68,47.59359,-54.27349
2021-06-14 22:24:01+00:00,217.0,5.54,216.0,6.19,13.68,47.59359,-54.27349
2021-06-14 22:34:01+00:00,220.0,5.82,220.0,6.58,13.68,47.59359,-54.27349
2021-06-14 22:44:01+00:00,213.0,4.98,216.0,6.12,13.68,47.59359,-54.27349
2021-06-14 22:54:01+00:00,201.0,5.89,205.0,6.51,13.68,47.59359,-54.27349
2021-06-14 23:04:01+00:00,198.0,5.73,197.0,6.26,13.68,47.59359,-54.27349
2021-06-14 23:14:01+00:00,208.0,6.05,209.0,6.76,13.37,47.59359,-54.27349
2021-06-14 23:24:01+00:00,220.0,4.94,218.0,5.5,13.37,47.59359,-54.27349
2021-06-14 23:34:01+00:00,215.0,5.86,215.0,6.7,13.37,47.59359,-54.27349
2021-06-14 23:44:01+00:00,207.0,5.6,209.0,6.21,13.37,47.59359,-54.27349
2021-06-14 23:54:01+00:00,198.0,6.23,202.0,6.83,13.37,47.59359,-54.27349
